This demonstration page uses our WeatherBlox Daily Observations layout. Learn more.

Left ArrowRight Arrow

Hourly Observations for July 10, 2017

Temp ( °F °C ) Dew Point ( °F °C ) Humidity (%) Winds ( mph kmh ) Pressure ( in mb ) Visibility ( mi km ) Precip ( " mm )
12:53 am 00:53 Clear 79 26.1 43 6.1 28 28 NNE 5 7 29.79 1009 10 16 0.00 0.00
1:53 am 01:53 Clear 77 25 44 6.7 31 31 NNW 5 7 29.80 1009 10 16 0.00 0.00
2:53 am 02:53 Clear 75 23.9 46 7.8 36 36 N 5 7 29.80 1009 10 16 0.00 0.00
3:53 am 03:53 Clear 72 22.2 48 8.9 43 43 Calm 29.80 1009 10 16 0.00 0.00
4:53 am 04:53 Clear 69 20.6 49 9.4 49 49 NNE 3 6 29.81 1009 10 16 0.00 0.00
5:53 am 05:53 Sunny 69 20.6 48 8.9 47 47 Calm 29.82 1010 10 16 0.00 0.00
6:53 am 06:53 Sunny 73 22.8 51 10.6 46 46 Calm 29.83 1010 10 16 0.00 0.00
7:53 am 07:53 Sunny 77 25 47 8.3 35 35 Calm 29.84 1010 10 16 0.00 0.00
8:53 am 08:53 Sunny 84 28.9 44 6.7 25 25 NNW 3 6 29.84 1010 10 16 0.00 0.00
9:53 am 09:53 Sunny 89 31.7 47 8.3 23 23 Calm 29.83 1010 10 16 0.00 0.00
10:53 am 10:53 Sunny 93 33.9 47 8.3 21 21 VRB 5 7 29.83 1010 10 16 0.00 0.00
11:53 am 11:53 Sunny 96 35.6 42 5.6 15 15 S 5 7 29.82 1010 10 16 0.00 0.00
12:53 pm 12:53 Sunny 98 36.7 42 5.6 15 15 S 6 9 29.81 1009 10 16 0.00 0.00
1:53 pm 13:53 Sunny 98 36.7 38 3.3 12 12 ESE 6 9 29.79 1009 10 16 0.00 0.00
2:53 pm 14:53 Sunny 101 38.3 39 3.9 12 12 S 6 9 29.78 1008 10 16 0.00 0.00
3:53 pm 15:53 Sunny 103 39.4 41 5 12 12 SSE 13 20 29.76 1008 10 16 0.00 0.00
4:53 pm 16:53 Sunny 102 38.9 34 1.1 9 9 SE 12 19 29.74 1007 10 16 0.00 0.00
5:53 pm 17:53 Sunny 102 38.9 38 3.3 11 11 SSE 12 19 29.72 1007 10 16 0.00 0.00
6:53 pm 18:53 Sunny 100 37.8 42 5.6 14 14 SSE 13 20 29.72 1006 10 16 0.00 0.00
7:53 pm 19:53 Sunny 97 36.1 44 6.7 16 16 S 9 15 29.72 1006 10 16 0.00 0.00
8:53 pm 20:53 Clear 91 32.8 52 11.1 26 26 S 3 6 29.73 1007 10 16 0.00 0.00
9:53 pm 21:53 Clear 88 31.1 55 12.8 33 33 Calm 29.74 1007 10 16 0.00 0.00
10:53 pm 22:53 Clear 83 28.3 54 12.2 37 37 NNE 3 6 29.76 1008 10 16 0.00 0.00
11:53 pm 23:53 Clear 83 28.3 57 13.9 41 41 NNE 5 7 29.76 1008 10 16 0.00 0.00

Powered by AerisWeather